sat.trackr.live / text

‹ back to catalog

STARLINK-34598

NORAD 64759 · 2025-147E

PAYLOAD ACTIVE UNKNOWN

§ Identity

Operator
Country
US
Launch date
2025-07-08
Launch site
AFETR
Launch vehicle
Mass (kg)
RCS (m²)

Purposes: comms

External: N2YO · Heavens-Above · Gunter

§ Orbital elements

Epoch: 2026-09-20T13:46:18.910272Z

Period
93.85 min
Inclination
53.1591°
Eccentricity
0.0001293
Mean motion
15.34406542 rev/d
Perigee alt
461.8 km
Apogee alt
463.6 km
Semi-major
6,840.8 km
B*
6.7609e-4
RAAN
53.6864°
Arg perigee
111.0712°
Mean anomaly
249.0429°
Rev number
6,859

§ Raw data

STARLINK-345981 64759U 25147E   26263.57382998  .00022540  00000+0  67609-3 0  99932 64759  53.1591  53.6864 0001293 111.0712 249.0429 15.34406542 68599

JSON: /api/v1/satellites/64759 · /tle

For live sub-satellite position, see the globe view (requires WebGL).

§ Visibility from observer

Set your observer location to see the next 7 days of passes ≥ 10°. The values pass through the URL so the page stays shareable.

No JS? Fill the form by hand. The geolocation button needs JavaScript.